owner,sensor,date,latitude,longitude,vertical_datum,wind_speed,wind_to_direction,wind_speed_of_gust,qcFlag 
TCOON,ioos:station:TCOON:031:1,2014-04-01T00:00:00Z,28.4073,-96.7122,0.0,5.7,118.0,8.6,'1111122,1111122,1111122' 
TCOON,ioos:station:TCOON:031:1,2014-04-01T00:06:00Z,28.4073,-96.7122,0.0,5.4,114.0,8.1,'11111222,11111222,11111222' 
TCOON,ioos:station:TCOON:031:1,2014-04-01T00:12:00Z,28.4073,-96.7122,0.0,4.8,114.0,8.4,'11111222,11111222,11111222' 
TCOON,ioos:station:TCOON:031:1,2014-04-01T00:18:00Z,28.4073,-96.7122,0.0,5.2,110.0,7.7,'11111222,11111222,11111222' 
TCOON,ioos:station:TCOON:031:1,2014-04-01T00:24:00Z,28.4073,-96.7122,0.0,5.0,111.0,6.8,'11111222,11111222,11111222' 
TCOON,ioos:station:TCOON:031:1,2014-04-01T00:30:00Z,28.4073,-96.7122,0.0,5.1,110.0,6.7,'11111222,11111222,11111222' 
TCOON,ioos:station:TCOON:031:1,2014-04-01T00:36:00Z,28.4073,-96.7122,0.0,4.5,108.0,6.7,'11111222,11111222,11111222' 
TCOON,ioos:station:TCOON:031:1,2014-04-01T00:42:00Z,28.4073,-96.7122,0.0,4.9,107.0,6.2,'11111222,11111222,11111222' 
TCOON,ioos:station:TCOON:031:1,2014-04-01T00:48:00Z,28.4073,-96.7122,0.0,4.5,105.0,7.3,'11111222,11111222,11111222' 
TCOON,ioos:station:TCOON:031:1,2014-04-01T00:54:00Z,28.4073,-96.7122,0.0,5.6,109.0,6.6,'11111222,11111222,11111222' 
TCOON,ioos:station:TCOON:031:1,2014-04-01T01:00:00Z,28.4073,-96.7122,0.0,5.6,109.0,6.6,'1111122,1111122,1111122' 
TCOON,ioos:station:TCOON:031:1,2014-04-01T01:06:00Z,28.4073,-96.7122,0.0,4.5,100.0,6.4,'11111222,11111222,11111222' 
TCOON,ioos:station:TCOON:031:1,2014-04-01T01:12:00Z,28.4073,-96.7122,0.0,4.8,98.0,5.9,'11111222,11111222,11111222' 
TCOON,ioos:station:TCOON:031:1,2014-04-01T01:18:00Z,28.4073,-96.7122,0.0,4.4,98.0,7.0,'11111222,11111222,11111222' 
TCOON,ioos:station:TCOON:031:1,2014-04-01T01:24:00Z,28.4073,-96.7122,0.0,4.2,95.0,5.7,'11111222,11111222,11111222' 
TCOON,ioos:station:TCOON:031:1,2014-04-01T01:30:00Z,28.4073,-96.7122,0.0,4.6,100.0,6.9,'11111222,11111222,11111222' 
TCOON,ioos:station:TCOON:031:1,2014-04-01T01:36:00Z,28.4073,-96.7122,0.0,4.7,98.0,6.7,'11111222,11111222,11111222' 
TCOON,ioos:station:TCOON:031:1,2014-04-01T01:42:00Z,28.4073,-96.7122,0.0,4.5,102.0,6.4,'11111222,11111222,11111222' 
TCOON,ioos:station:TCOON:031:1,2014-04-01T01:48:00Z,28.4073,-96.7122,0.0,4.9,101.0,6.4,'11111222,11111222,11111222' 
TCOON,ioos:station:TCOON:031:1,2014-04-01T01:54:00Z,28.4073,-96.7122,0.0,5.5,102.0,6.7,'11111222,11111222,11111222' 
TCOON,ioos:station:TCOON:031:1,2014-04-01T02:00:00Z,28.4073,-96.7122,0.0,5.5,102.0,6.7,'1111122,1111122,1111122' 
TCOON,ioos:station:TCOON:031:1,2014-04-01T02:06:00Z,28.4073,-96.7122,0.0,5.2,100.0,7.0,'11111222,11111222,11111222' 
TCOON,ioos:station:TCOON:031:1,2014-04-01T02:12:00Z,28.4073,-96.7122,0.0,5.0,100.0,7.0,'11111222,11111222,11111222' 
TCOON,ioos:station:TCOON:031:1,2014-04-01T02:18:00Z,28.4073,-96.7122,0.0,4.8,99.0,6.5,'11111222,11111222,11111222' 
TCOON,ioos:station:TCOON:031:1,2014-04-01T02:24:00Z,28.4073,-96.7122,0.0,4.9,102.0,7.2,'11111222,11111222,11111222' 
TCOON,ioos:station:TCOON:031:1,2014-04-01T02:30:00Z,28.4073,-96.7122,0.0,4.4,98.0,6.0,'11111222,11111222,11111222' 
TCOON,ioos:station:TCOON:031:1,2014-04-01T02:36:00Z,28.4073,-96.7122,0.0,4.5,100.0,6.0,'11111222,11111222,11111222' 
TCOON,ioos:station:TCOON:031:1,2014-04-01T02:42:00Z,28.4073,-96.7122,0.0,4.2,96.0,6.0,'11111222,11111222,11111222' 
TCOON,ioos:station:TCOON:031:1,2014-04-01T02:48:00Z,28.4073,-96.7122,0.0,4.2,98.0,5.8,'11111222,11111222,11111222' 
TCOON,ioos:station:TCOON:031:1,2014-04-01T02:54:00Z,28.4073,-96.7122,0.0,3.6,93.0,5.4,'11111222,11111222,11111222' 
TCOON,ioos:station:TCOON:031:1,2014-04-01T03:00:00Z,28.4073,-96.7122,0.0,3.6,93.0,5.4,'1111122,1111122,1111122' 
TCOON,ioos:station:TCOON:031:1,2014-04-01T03:06:00Z,28.4073,-96.7122,0.0,4.0,100.0,5.4,'11111222,11111222,11111222' 
TCOON,ioos:station:TCOON:031:1,2014-04-01T03:12:00Z,28.4073,-96.7122,0.0,3.6,105.0,4.8,'11111222,11111222,11111222' 
TCOON,ioos:station:TCOON:031:1,2014-04-01T03:18:00Z,28.4073,-96.7122,0.0,4.7,108.0,6.7,'11111222,11111222,11111222' 
TCOON,ioos:station:TCOON:031:1,2014-04-01T03:24:00Z,28.4073,-96.7122,0.0,3.7,109.0,6.2,'11111222,11111222,11111222' 
TCOON,ioos:station:TCOON:031:1,2014-04-01T03:30:00Z,28.4073,-96.7122,0.0,4.8,105.0,6.2,'11111222,11111222,11111222' 
TCOON,ioos:station:TCOON:031:1,2014-04-01T03:36:00Z,28.4073,-96.7122,0.0,4.5,113.0,6.0,'11111222,11111222,11111222' 
TCOON,ioos:station:TCOON:031:1,2014-04-01T03:42:00Z,28.4073,-96.7122,0.0,4.6,113.0,6.1,'11111222,11111222,11111222' 
TCOON,ioos:station:TCOON:031:1,2014-04-01T03:48:00Z,28.4073,-96.7122,0.0,5.4,112.0,6.5,'11111222,11111222,11111222' 
TCOON,ioos:station:TCOON:031:1,2014-04-01T03:54:00Z,28.4073,-96.7122,0.0,5.4,115.0,7.3,'11111222,11111222,11111222' 
TCOON,ioos:station:TCOON:031:1,2014-04-01T04:00:00Z,28.4073,-96.7122,0.0,5.4,115.0,7.3,'1111122,1111122,1111122' 
TCOON,ioos:station:TCOON:031:1,2014-04-01T04:06:00Z,28.4073,-96.7122,0.0,5.7,116.0,6.9,'11111222,11111222,11111222' 
TCOON,ioos:station:TCOON:031:1,2014-04-01T04:12:00Z,28.4073,-96.7122,0.0,5.6,115.0,7.3,'11111222,11111222,11111222' 
TCOON,ioos:station:TCOON:031:1,2014-04-01T04:18:00Z,28.4073,-96.7122,0.0,5.6,112.0,6.6,'11111222,11111222,11111222' 
TCOON,ioos:station:TCOON:031:1,2014-04-01T04:24:00Z,28.4073,-96.7122,0.0,4.8,115.0,7.5,'11111222,11111222,11111222' 
TCOON,ioos:station:TCOON:031:1,2014-04-01T04:30:00Z,28.4073,-96.7122,0.0,5.0,116.0,6.9,'11111222,11111222,11111222' 
TCOON,ioos:station:TCOON:031:1,2014-04-01T04:36:00Z,28.4073,-96.7122,0.0,6.5,116.0,7.8,'11111222,11111222,11111222' 
TCOON,ioos:station:TCOON:031:1,2014-04-01T04:42:00Z,28.4073,-96.7122,0.0,6.6,115.0,8.9,'11111222,11111222,11111222' 
TCOON,ioos:station:TCOON:031:1,2014-04-01T04:48:00Z,28.4073,-96.7122,0.0,6.1,113.0,8.2,'11111222,11111222,11111222' 
TCOON,ioos:station:TCOON:031:1,2014-04-01T04:54:00Z,28.4073,-96.7122,0.0,5.6,113.0,7.8,'11111222,11111222,11111222' 
TCOON,ioos:station:TCOON:031:1,2014-04-01T05:00:00Z,28.4073,-96.7122,0.0,5.6,113.0,7.8,'1111122,1111122,1111122' 
TCOON,ioos:station:TCOON:031:1,2014-04-01T05:06:00Z,28.4073,-96.7122,0.0,5.2,112.0,7.0,'11111222,11111222,11111222' 
TCOON,ioos:station:TCOON:031:1,2014-04-01T05:12:00Z,28.4073,-96.7122,0.0,4.6,112.0,6.4,'11111222,11111222,11111222' 
TCOON,ioos:station:TCOON:031:1,2014-04-01T05:18:00Z,28.4073,-96.7122,0.0,6.4,113.0,8.5,'11111222,11111222,11111222' 
TCOON,ioos:station:TCOON:031:1,2014-04-01T05:24:00Z,28.4073,-96.7122,0.0,5.3,112.0,8.2,'11111222,11111222,11111222' 
TCOON,ioos:station:TCOON:031:1,2014-04-01T05:30:00Z,28.4073,-96.7122,0.0,6.1,117.0,8.2,'11111222,11111222,11111222' 
TCOON,ioos:station:TCOON:031:1,2014-04-01T05:36:00Z,28.4073,-96.7122,0.0,5.2,115.0,6.9,'11111222,11111222,11111222' 
TCOON,ioos:station:TCOON:031:1,2014-04-01T05:42:00Z,28.4073,-96.7122,0.0,4.4,110.0,7.6,'11111222,11111222,11111222' 
TCOON,ioos:station:TCOON:031:1,2014-04-01T05:48:00Z,28.4073,-96.7122,0.0,4.5,109.0,6.9,'11111222,11111222,11111222' 
TCOON,ioos:station:TCOON:031:1,2014-04-01T05:54:00Z,28.4073,-96.7122,0.0,4.5,111.0,6.7,'11111222,11111222,11111222' 
TCOON,ioos:station:TCOON:031:1,2014-04-01T06:00:00Z,28.4073,-96.7122,0.0,4.3,110.0,5.9,'11111222,11111222,11111222' 
TCOON,ioos:station:TCOON:031:1,2014-04-01T06:06:00Z,28.4073,-96.7122,0.0,5.2,111.0,7.0,'11111222,11111222,11111222' 
TCOON,ioos:station:TCOON:031:1,2014-04-01T06:12:00Z,28.4073,-96.7122,0.0,5.2,111.0,7.0,'1111122,1111122,1111122' 
TCOON,ioos:station:TCOON:031:1,2014-04-01T06:18:00Z,28.4073,-96.7122,0.0,4.4,114.0,5.7,'11111222,11111222,11111222' 
TCOON,ioos:station:TCOON:031:1,2014-04-01T06:24:00Z,28.4073,-96.7122,0.0,4.4,116.0,6.2,'11111222,11111222,11111222' 
TCOON,ioos:station:TCOON:031:1,2014-04-01T06:30:00Z,28.4073,-96.7122,0.0,5.4,115.0,7.1,'11111222,11111222,11111222' 
TCOON,ioos:station:TCOON:031:1,2014-04-01T06:36:00Z,28.4073,-96.7122,0.0,4.2,112.0,5.0,'11111222,11111222,11111222' 
TCOON,ioos:station:TCOON:031:1,2014-04-01T06:42:00Z,28.4073,-96.7122,0.0,3.9,110.0,5.3,'11111222,11111222,11111222' 
TCOON,ioos:station:TCOON:031:1,2014-04-01T06:48:00Z,28.4073,-96.7122,0.0,4.9,115.0,6.1,'11111222,11111222,11111222' 
TCOON,ioos:station:TCOON:031:1,2014-04-01T06:54:00Z,28.4073,-96.7122,0.0,4.6,113.0,6.4,'11111222,11111222,11111222' 
TCOON,ioos:station:TCOON:031:1,2014-04-01T07:00:00Z,28.4073,-96.7122,0.0,4.6,113.0,6.4,'1111122,1111122,1111122' 
TCOON,ioos:station:TCOON:031:1,2014-04-01T07:06:00Z,28.4073,-96.7122,0.0,4.4,110.0,6.6,'11111222,11111222,11111222' 
TCOON,ioos:station:TCOON:031:1,2014-04-01T07:12:00Z,28.4073,-96.7122,0.0,4.3,112.0,5.8,'11111222,11111222,11111222' 
TCOON,ioos:station:TCOON:031:1,2014-04-01T07:18:00Z,28.4073,-96.7122,0.0,5.5,117.0,6.5,'11111222,11111222,11111222' 
TCOON,ioos:station:TCOON:031:1,2014-04-01T07:24:00Z,28.4073,-96.7122,0.0,4.6,110.0,5.9,'11111222,11111222,11111222' 
TCOON,ioos:station:TCOON:031:1,2014-04-01T07:30:00Z,28.4073,-96.7122,0.0,4.4,107.0,5.7,'11111222,11111222,11111222' 
TCOON,ioos:station:TCOON:031:1,2014-04-01T07:36:00Z,28.4073,-96.7122,0.0,3.9,109.0,5.6,'11111222,11111222,11111222' 
TCOON,ioos:station:TCOON:031:1,2014-04-01T07:42:00Z,28.4073,-96.7122,0.0,4.3,107.0,5.6,'11111222,11111222,11111222' 
TCOON,ioos:station:TCOON:031:1,2014-04-01T07:48:00Z,28.4073,-96.7122,0.0,4.7,110.0,6.2,'11111222,11111222,11111222' 
TCOON,ioos:station:TCOON:031:1,2014-04-01T07:54:00Z,28.4073,-96.7122,0.0,4.2,111.0,5.4,'11111222,11111222,11111222' 
TCOON,ioos:station:TCOON:031:1,2014-04-01T08:00:00Z,28.4073,-96.7122,0.0,4.2,111.0,5.4,'1111122,1111122,1111122' 
TCOON,ioos:station:TCOON:031:1,2014-04-01T08:06:00Z,28.4073,-96.7122,0.0,4.0,107.0,5.5,'11111222,11111222,11111222' 
TCOON,ioos:station:TCOON:031:1,2014-04-01T08:12:00Z,28.4073,-96.7122,0.0,3.4,104.0,5.4,'11111222,11111222,11111222' 
TCOON,ioos:station:TCOON:031:1,2014-04-01T08:18:00Z,28.4073,-96.7122,0.0,3.0,98.0,4.8,'11111222,11111222,11111222' 
TCOON,ioos:station:TCOON:031:1,2014-04-01T08:24:00Z,28.4073,-96.7122,0.0,3.0,107.0,3.8,'11111222,11111222,11111222' 
TCOON,ioos:station:TCOON:031:1,2014-04-01T08:30:00Z,28.4073,-96.7122,0.0,3.6,110.0,4.5,'11111222,11111222,11111222' 
TCOON,ioos:station:TCOON:031:1,2014-04-01T08:36:00Z,28.4073,-96.7122,0.0,3.1,106.0,4.7,'11111222,11111222,11111222' 
TCOON,ioos:station:TCOON:031:1,2014-04-01T08:42:00Z,28.4073,-96.7122,0.0,3.2,113.0,5.0,'11111222,11111222,11111222' 
TCOON,ioos:station:TCOON:031:1,2014-04-01T08:48:00Z,28.4073,-96.7122,0.0,3.9,111.0,5.1,'11111222,11111222,11111222' 
TCOON,ioos:station:TCOON:031:1,2014-04-01T08:54:00Z,28.4073,-96.7122,0.0,4.0,109.0,5.5,'11111222,11111222,11111222' 
TCOON,ioos:station:TCOON:031:1,2014-04-01T09:00:00Z,28.4073,-96.7122,0.0,4.0,109.0,5.5,'1111122,1111122,1111122' 
TCOON,ioos:station:TCOON:031:1,2014-04-01T09:06:00Z,28.4073,-96.7122,0.0,3.6,101.0,4.7,'11111222,11111222,11111222' 
TCOON,ioos:station:TCOON:031:1,2014-04-01T09:12:00Z,28.4073,-96.7122,0.0,1.9,121.0,4.0,'11111222,11111222,11111222' 
TCOON,ioos:station:TCOON:031:1,2014-04-01T09:18:00Z,28.4073,-96.7122,0.0,3.0,110.0,3.7,'11111222,11111222,11111222' 
TCOON,ioos:station:TCOON:031:1,2014-04-01T09:24:00Z,28.4073,-96.7122,0.0,3.1,101.0,4.0,'11111222,11111222,11111222' 
TCOON,ioos:station:TCOON:031:1,2014-04-01T09:30:00Z,28.4073,-96.7122,0.0,3.3,101.0,4.8,'11111222,11111222,11111222' 
TCOON,ioos:station:TCOON:031:1,2014-04-01T09:36:00Z,28.4073,-96.7122,0.0,3.0,102.0,4.5,'11111222,11111222,11111222' 
TCOON,ioos:station:TCOON:031:1,2014-04-01T09:42:00Z,28.4073,-96.7122,0.0,4.1,102.0,4.9,'11111222,11111222,11111222' 
TCOON,ioos:station:TCOON:031:1,2014-04-01T09:48:00Z,28.4073,-96.7122,0.0,3.8,106.0,5.0,'11111222,11111222,11111222' 
TCOON,ioos:station:TCOON:031:1,2014-04-01T09:54:00Z,28.4073,-96.7122,0.0,3.2,105.0,4.5,'11111222,11111222,11111222' 
TCOON,ioos:station:TCOON:031:1,2014-04-01T10:00:00Z,28.4073,-96.7122,0.0,3.2,105.0,4.5,'1111122,1111122,1111122' 
TCOON,ioos:station:TCOON:031:1,2014-04-01T10:06:00Z,28.4073,-96.7122,0.0,3.5,104.0,4.1,'11111222,11111222,11111222' 
TCOON,ioos:station:TCOON:031:1,2014-04-01T10:12:00Z,28.4073,-96.7122,0.0,3.4,101.0,4.3,'11111222,11111222,11111222' 
TCOON,ioos:station:TCOON:031:1,2014-04-01T10:18:00Z,28.4073,-96.7122,0.0,3.2,104.0,4.3,'11111222,11111222,11111222' 
TCOON,ioos:station:TCOON:031:1,2014-04-01T10:24:00Z,28.4073,-96.7122,0.0,3.5,101.0,4.4,'11111222,11111222,11111222' 
TCOON,ioos:station:TCOON:031:1,2014-04-01T10:30:00Z,28.4073,-96.7122,0.0,3.4,105.0,4.3,'11111222,11111222,11111222' 
TCOON,ioos:station:TCOON:031:1,2014-04-01T10:36:00Z,28.4073,-96.7122,0.0,2.6,103.0,3.3,'11111222,11111222,11111222' 
TCOON,ioos:station:TCOON:031:1,2014-04-01T10:42:00Z,28.4073,-96.7122,0.0,2.7,103.0,3.4,'11111222,11111222,11111222' 
TCOON,ioos:station:TCOON:031:1,2014-04-01T10:48:00Z,28.4073,-96.7122,0.0,3.0,103.0,3.8,'11111222,11111222,11111222' 
TCOON,ioos:station:TCOON:031:1,2014-04-01T10:54:00Z,28.4073,-96.7122,0.0,3.4,108.0,4.0,'11111222,11111222,11111222' 
TCOON,ioos:station:TCOON:031:1,2014-04-01T11:00:00Z,28.4073,-96.7122,0.0,3.4,108.0,4.0,'1111122,1111122,1111122' 
TCOON,ioos:station:TCOON:031:1,2014-04-01T11:06:00Z,28.4073,-96.7122,0.0,3.6,113.0,5.1,'11111222,11111222,11111222' 
TCOON,ioos:station:TCOON:031:1,2014-04-01T11:12:00Z,28.4073,-96.7122,0.0,3.2,115.0,4.8,'11111222,11111222,11111222' 
TCOON,ioos:station:TCOON:031:1,2014-04-01T11:18:00Z,28.4073,-96.7122,0.0,4.3,113.0,5.8,'11111222,11111222,11111222' 
TCOON,ioos:station:TCOON:031:1,2014-04-01T11:24:00Z,28.4073,-96.7122,0.0,3.7,118.0,4.8,'11111222,11111222,11111222' 
TCOON,ioos:station:TCOON:031:1,2014-04-01T11:30:00Z,28.4073,-96.7122,0.0,3.1,116.0,4.7,'11111222,11111222,11111222' 
TCOON,ioos:station:TCOON:031:1,2014-04-01T11:36:00Z,28.4073,-96.7122,0.0,3.2,116.0,4.3,'11111222,11111222,11111222' 
TCOON,ioos:station:TCOON:031:1,2014-04-01T11:42:00Z,28.4073,-96.7122,0.0,3.5,119.0,4.5,'11111222,11111222,11111222' 
TCOON,ioos:station:TCOON:031:1,2014-04-01T11:48:00Z,28.4073,-96.7122,0.0,4.6,114.0,6.7,'11111222,11111222,11111222' 
TCOON,ioos:station:TCOON:031:1,2014-04-01T11:54:00Z,28.4073,-96.7122,0.0,4.9,117.0,6.9,'11111222,11111222,11111222' 
TCOON,ioos:station:TCOON:031:1,2014-04-01T12:00:00Z,28.4073,-96.7122,0.0,4.9,117.0,6.9,'1111122,1111122,1111122' 
TCOON,ioos:station:TCOON:031:1,2014-04-01T12:06:00Z,28.4073,-96.7122,0.0,4.2,115.0,5.2,'11111222,11111222,11111222' 
TCOON,ioos:station:TCOON:031:1,2014-04-01T12:12:00Z,28.4073,-96.7122,0.0,4.3,112.0,5.9,'11111222,11111222,11111222' 
TCOON,ioos:station:TCOON:031:1,2014-04-01T12:18:00Z,28.4073,-96.7122,0.0,4.7,120.0,6.4,'11111222,11111222,11111222' 
TCOON,ioos:station:TCOON:031:1,2014-04-01T12:24:00Z,28.4073,-96.7122,0.0,5.1,115.0,6.3,'11111222,11111222,11111222' 
TCOON,ioos:station:TCOON:031:1,2014-04-01T12:30:00Z,28.4073,-96.7122,0.0,4.8,115.0,6.1,'11111222,11111222,11111222' 
TCOON,ioos:station:TCOON:031:1,2014-04-01T12:36:00Z,28.4073,-96.7122,0.0,4.8,112.0,6.6,'11111222,11111222,11111222' 
TCOON,ioos:station:TCOON:031:1,2014-04-01T12:42:00Z,28.4073,-96.7122,0.0,4.3,113.0,5.6,'11111222,11111222,11111222' 
TCOON,ioos:station:TCOON:031:1,2014-04-01T12:48:00Z,28.4073,-96.7122,0.0,4.5,107.0,5.6,'11111222,11111222,11111222' 
TCOON,ioos:station:TCOON:031:1,2014-04-01T12:54:00Z,28.4073,-96.7122,0.0,5.0,107.0,6.5,'11111222,11111222,11111222' 
TCOON,ioos:station:TCOON:031:1,2014-04-01T13:00:00Z,28.4073,-96.7122,0.0,5.0,107.0,6.5,'1111122,1111122,1111122' 
TCOON,ioos:station:TCOON:031:1,2014-04-01T13:06:00Z,28.4073,-96.7122,0.0,5.2,108.0,6.5,'11111222,11111222,11111222' 
TCOON,ioos:station:TCOON:031:1,2014-04-01T13:12:00Z,28.4073,-96.7122,0.0,4.8,114.0,6.0,'11111222,11111222,11111222' 
TCOON,ioos:station:TCOON:031:1,2014-04-01T13:18:00Z,28.4073,-96.7122,0.0,4.5,110.0,6.0,'11111222,11111222,11111222' 
TCOON,ioos:station:TCOON:031:1,2014-04-01T13:24:00Z,28.4073,-96.7122,0.0,4.3,109.0,6.1,'11111222,11111222,11111222' 
TCOON,ioos:station:TCOON:031:1,2014-04-01T13:30:00Z,28.4073,-96.7122,0.0,4.8,114.0,6.2,'11111222,11111222,11111222' 
TCOON,ioos:station:TCOON:031:1,2014-04-01T13:36:00Z,28.4073,-96.7122,0.0,5.8,110.0,7.8,'11111222,11111222,11111222' 
TCOON,ioos:station:TCOON:031:1,2014-04-01T13:42:00Z,28.4073,-96.7122,0.0,4.9,109.0,6.6,'11111222,11111222,11111222' 
TCOON,ioos:station:TCOON:031:1,2014-04-01T13:48:00Z,28.4073,-96.7122,0.0,4.9,115.0,6.8,'11111222,11111222,11111222' 
TCOON,ioos:station:TCOON:031:1,2014-04-01T13:54:00Z,28.4073,-96.7122,0.0,5.8,112.0,7.3,'11111222,11111222,11111222' 
TCOON,ioos:station:TCOON:031:1,2014-04-01T14:00:00Z,28.4073,-96.7122,0.0,5.8,112.0,7.3,'1111122,1111122,1111122' 
TCOON,ioos:station:TCOON:031:1,2014-04-01T14:06:00Z,28.4073,-96.7122,0.0,4.8,113.0,8.4,'11111222,11111222,11111222' 
TCOON,ioos:station:TCOON:031:1,2014-04-01T14:12:00Z,28.4073,-96.7122,0.0,6.3,117.0,8.0,'11111222,11111222,11111222' 
TCOON,ioos:station:TCOON:031:1,2014-04-01T14:18:00Z,28.4073,-96.7122,0.0,6.5,123.0,7.8,'11111222,11111222,11111222' 
TCOON,ioos:station:TCOON:031:1,2014-04-01T14:24:00Z,28.4073,-96.7122,0.0,6.3,122.0,7.8,'11111222,11111222,11111222' 
TCOON,ioos:station:TCOON:031:1,2014-04-01T14:30:00Z,28.4073,-96.7122,0.0,6.9,123.0,8.2,'11111222,11111222,11111222' 
TCOON,ioos:station:TCOON:031:1,2014-04-01T14:36:00Z,28.4073,-96.7122,0.0,6.3,115.0,8.1,'11111222,11111222,11111222' 
TCOON,ioos:station:TCOON:031:1,2014-04-01T14:42:00Z,28.4073,-96.7122,0.0,6.4,119.0,8.0,'11111222,11111222,11111222' 
TCOON,ioos:station:TCOON:031:1,2014-04-01T14:48:00Z,28.4073,-96.7122,0.0,6.8,121.0,9.3,'11111222,11111222,11111222' 
TCOON,ioos:station:TCOON:031:1,2014-04-01T14:54:00Z,28.4073,-96.7122,0.0,5.9,124.0,9.4,'11111222,11111222,11111222' 
TCOON,ioos:station:TCOON:031:1,2014-04-01T15:00:00Z,28.4073,-96.7122,0.0,5.9,124.0,9.4,'1111122,1111122,1111122' 
TCOON,ioos:station:TCOON:031:1,2014-04-01T15:06:00Z,28.4073,-96.7122,0.0,6.8,129.0,8.3,'11111222,11111222,11111222' 
TCOON,ioos:station:TCOON:031:1,2014-04-01T15:12:00Z,28.4073,-96.7122,0.0,7.7,122.0,8.5,'11111222,11111222,11111222' 
TCOON,ioos:station:TCOON:031:1,2014-04-01T15:18:00Z,28.4073,-96.7122,0.0,7.1,125.0,8.5,'11111222,11111222,11111222' 
TCOON,ioos:station:TCOON:031:1,2014-04-01T15:24:00Z,28.4073,-96.7122,0.0,7.0,127.0,8.7,'11111222,11111222,11111222' 
TCOON,ioos:station:TCOON:031:1,2014-04-01T15:30:00Z,28.4073,-96.7122,0.0,7.0,124.0,8.4,'11111222,11111222,11111222' 
TCOON,ioos:station:TCOON:031:1,2014-04-01T15:36:00Z,28.4073,-96.7122,0.0,6.8,124.0,8.4,'11111222,11111222,11111222' 
TCOON,ioos:station:TCOON:031:1,2014-04-01T15:42:00Z,28.4073,-96.7122,0.0,7.4,121.0,9.8,'11111222,11111222,11111222' 
TCOON,ioos:station:TCOON:031:1,2014-04-01T15:48:00Z,28.4073,-96.7122,0.0,6.0,123.0,9.3,'11111222,11111222,11111222' 
TCOON,ioos:station:TCOON:031:1,2014-04-01T15:54:00Z,28.4073,-96.7122,0.0,6.5,124.0,9.3,'11111222,11111222,11111222' 
TCOON,ioos:station:TCOON:031:1,2014-04-01T16:00:00Z,28.4073,-96.7122,0.0,6.5,124.0,9.3,'1111122,1111122,1111122' 
TCOON,ioos:station:TCOON:031:1,2014-04-01T16:06:00Z,28.4073,-96.7122,0.0,6.7,127.0,8.3,'11111222,11111222,11111222' 
TCOON,ioos:station:TCOON:031:1,2014-04-01T16:12:00Z,28.4073,-96.7122,0.0,7.4,123.0,8.9,'11111222,11111222,11111222' 
TCOON,ioos:station:TCOON:031:1,2014-04-01T16:18:00Z,28.4073,-96.7122,0.0,7.1,126.0,9.1,'11111222,11111222,11111222' 
TCOON,ioos:station:TCOON:031:1,2014-04-01T16:24:00Z,28.4073,-96.7122,0.0,6.7,127.0,8.7,'11111222,11111222,11111222' 
TCOON,ioos:station:TCOON:031:1,2014-04-01T16:30:00Z,28.4073,-96.7122,0.0,7.1,126.0,9.5,'11111222,11111222,11111222' 
TCOON,ioos:station:TCOON:031:1,2014-04-01T16:36:00Z,28.4073,-96.7122,0.0,6.3,126.0,8.6,'11111222,11111222,11111222' 
TCOON,ioos:station:TCOON:031:1,2014-04-01T16:42:00Z,28.4073,-96.7122,0.0,7.1,128.0,9.3,'11111222,11111222,11111222' 
TCOON,ioos:station:TCOON:031:1,2014-04-01T16:48:00Z,28.4073,-96.7122,0.0,7.1,129.0,9.3,'11111222,11111222,11111222' 
TCOON,ioos:station:TCOON:031:1,2014-04-01T16:54:00Z,28.4073,-96.7122,0.0,7.9,131.0,9.5,'11111222,11111222,11111222' 
TCOON,ioos:station:TCOON:031:1,2014-04-01T17:00:00Z,28.4073,-96.7122,0.0,7.9,131.0,9.5,'1111122,1111122,1111122' 
TCOON,ioos:station:TCOON:031:1,2014-04-01T17:06:00Z,28.4073,-96.7122,0.0,8.6,134.0,10.6,'11111222,11111222,11111222' 
TCOON,ioos:station:TCOON:031:1,2014-04-01T17:12:00Z,28.4073,-96.7122,0.0,7.8,136.0,10.9,'11111222,11111222,11111222' 
TCOON,ioos:station:TCOON:031:1,2014-04-01T17:18:00Z,28.4073,-96.7122,0.0,9.3,139.0,11.3,'11111222,11111222,11111222' 
TCOON,ioos:station:TCOON:031:1,2014-04-01T17:24:00Z,28.4073,-96.7122,0.0,9.1,137.0,11.1,'11111222,11111222,11111222' 
TCOON,ioos:station:TCOON:031:1,2014-04-01T17:30:00Z,28.4073,-96.7122,0.0,8.3,141.0,11.6,'11111222,11111222,11111222' 
TCOON,ioos:station:TCOON:031:1,2014-04-01T17:36:00Z,28.4073,-96.7122,0.0,8.5,143.0,11.7,'11111222,11111222,11111222' 
TCOON,ioos:station:TCOON:031:1,2014-04-01T17:42:00Z,28.4073,-96.7122,0.0,9.4,140.0,11.1,'11111222,11111222,11111222' 
TCOON,ioos:station:TCOON:031:1,2014-04-01T17:48:00Z,28.4073,-96.7122,0.0,9.4,140.0,10.5,'11111222,11111222,11111222' 
TCOON,ioos:station:TCOON:031:1,2014-04-01T17:54:00Z,28.4073,-96.7122,0.0,9.6,143.0,11.3,'11111222,11111222,11111222' 
TCOON,ioos:station:TCOON:031:1,2014-04-01T18:00:00Z,28.4073,-96.7122,0.0,9.6,143.0,11.3,'1111122,1111122,1111122' 
TCOON,ioos:station:TCOON:031:1,2014-04-01T18:06:00Z,28.4073,-96.7122,0.0,9.2,141.0,11.7,'11111222,11111222,11111222' 
TCOON,ioos:station:TCOON:031:1,2014-04-01T18:12:00Z,28.4073,-96.7122,0.0,10.0,141.0,11.2,'11111222,11111222,11111222' 
TCOON,ioos:station:TCOON:031:1,2014-04-01T18:18:00Z,28.4073,-96.7122,0.0,8.8,142.0,11.7,'11111222,11111222,11111222' 
TCOON,ioos:station:TCOON:031:1,2014-04-01T18:24:00Z,28.4073,-96.7122,0.0,9.4,137.0,11.8,'11111222,11111222,11111222' 
TCOON,ioos:station:TCOON:031:1,2014-04-01T18:30:00Z,28.4073,-96.7122,0.0,9.4,138.0,11.5,'11111222,11111222,11111222' 
TCOON,ioos:station:TCOON:031:1,2014-04-01T18:36:00Z,28.4073,-96.7122,0.0,9.4,138.0,11.9,'11111222,11111222,11111222' 
TCOON,ioos:station:TCOON:031:1,2014-04-01T18:42:00Z,28.4073,-96.7122,0.0,8.2,140.0,10.0,'11111222,11111222,11111222' 
TCOON,ioos:station:TCOON:031:1,2014-04-01T18:48:00Z,28.4073,-96.7122,0.0,8.1,142.0,12.0,'11111222,11111222,11111222' 
TCOON,ioos:station:TCOON:031:1,2014-04-01T18:54:00Z,28.4073,-96.7122,0.0,9.1,147.0,10.5,'11111222,11111222,11111222' 
TCOON,ioos:station:TCOON:031:1,2014-04-01T19:00:00Z,28.4073,-96.7122,0.0,9.1,147.0,10.5,'1111122,1111122,1111122' 
TCOON,ioos:station:TCOON:031:1,2014-04-01T19:06:00Z,28.4073,-96.7122,0.0,9.6,141.0,11.2,'11111222,11111222,11111222' 
TCOON,ioos:station:TCOON:031:1,2014-04-01T19:12:00Z,28.4073,-96.7122,0.0,9.3,143.0,11.1,'11111222,11111222,11111222' 
TCOON,ioos:station:TCOON:031:1,2014-04-01T19:18:00Z,28.4073,-96.7122,0.0,10.5,145.0,12.3,'11111222,11111222,11111222' 
TCOON,ioos:station:TCOON:031:1,2014-04-01T19:24:00Z,28.4073,-96.7122,0.0,10.2,150.0,12.1,'11111222,11111222,11111222' 
TCOON,ioos:station:TCOON:031:1,2014-04-01T19:30:00Z,28.4073,-96.7122,0.0,10.4,143.0,12.3,'11111222,11111222,11111222' 
TCOON,ioos:station:TCOON:031:1,2014-04-01T19:36:00Z,28.4073,-96.7122,0.0,9.5,139.0,11.2,'11111222,11111222,11111222' 
TCOON,ioos:station:TCOON:031:1,2014-04-01T19:42:00Z,28.4073,-96.7122,0.0,10.3,146.0,12.0,'11111222,11111222,11111222' 
TCOON,ioos:station:TCOON:031:1,2014-04-01T19:48:00Z,28.4073,-96.7122,0.0,9.8,148.0,12.1,'11111222,11111222,11111222' 
TCOON,ioos:station:TCOON:031:1,2014-04-01T19:54:00Z,28.4073,-96.7122,0.0,9.3,147.0,11.9,'11111222,11111222,11111222' 
TCOON,ioos:station:TCOON:031:1,2014-04-01T20:00:00Z,28.4073,-96.7122,0.0,9.3,147.0,12.2,'1111122,1111122,1111122' 
TCOON,ioos:station:TCOON:031:1,2014-04-01T20:06:00Z,28.4073,-96.7122,0.0,9.9,147.0,11.5,'11111222,11111222,11111222' 
TCOON,ioos:station:TCOON:031:1,2014-04-01T20:12:00Z,28.4073,-96.7122,0.0,10.3,146.0,11.7,'11111222,11111222,11111222' 
TCOON,ioos:station:TCOON:031:1,2014-04-01T20:18:00Z,28.4073,-96.7122,0.0,9.5,142.0,11.4,'11111222,11111222,11111222' 